Back to catalog

CZ-6A DEB

AliveSSO
NORAD 54587·DEBRIS·🇨🇳 China

Launched Nov 11, 2022 from Taiyuan Satellite Launch Center

Loading…

Next Passes (next 24 hours)

TLE

FreshSource: Space-Track

Epoch: Sep 13, 2026, 21:40 UTC

1 54587U 22151MP  26256.90319826  .00000478  00000-0  34937-3 0  9997
2 54587  98.8863 224.2736 0116203 186.3897 173.5791 13.97527457195024

Track CZ-6A DEB in real time with AllMySat

Download on the App Store